Flag for Germany Weather past 2 weeks in Salzgitter, Lower Saxony, Germany

Now
64 °F

Partly sunny.


Feels Like: 64 °F
Forecast: 49 / 69 °F
Wind: 6 mph from Northeast

Location: Braunschweig

Current Time: Sep 2, 2014 at 6:09:00 PM

Latest Report: Sep 2, 2014 at 5:20 PM


Visibility: N/A

Pressure: 30.21 "Hg

Humidity: 78%

Dew point: 57 °F

Location of SalzgitterLocation

Historic Weather in Salzgitter — Graph

°F

Salzgitter temperature yesterday

Maximum temperature yesterday: 66 °F (at 5:20 PM)
Minimum temperature yesterday: 55 °F (at 6:20 AM)
Average temperature yesterday: 60 °F

Past Weeks' High & Low Weather Summary

 TemperatureHumidityPressure
High75 °F (Aug 28, 3:20 PM)100% (Aug 19, 4:20 PM)30.21 "Hg (Aug 19, 4:20 PM)
Low45 °F (Aug 28, 6:50 AM)35% (Aug 27, 4:20 PM)29.65 "Hg (Aug 18, 4:20 PM)
Average60 °F74%29.94 "Hg
* Reported Aug 18 4:20 PM — Sep 2 4:50 PM, Salzgitter, Weather by CustomWeather, © 2014

Note: Actual official high and low records may vary slightly from our data, if they occured in-between our weather recording intervals... More about our weather records

Advertising

Salzgitter weather history for previous 24 hours

 ConditionsComfort  
Time TempWeatherWind HumidityBarometerVisibility
4:50 PM
Sep 2
63 °FPartly sunny.5 mph88%30.21 "HgN/A
4:20 PM63 °FMostly cloudy.5 mph88%30.21 "HgN/A
3:50 PM63 °FBroken clouds.6 mph88%30.21 "HgN/A
3:20 PM63 °FPartly sunny.8 mph88%30.18 "HgN/A
2:50 PM63 °FBroken clouds.9 mph94%30.18 "HgN/A
2:20 PM63 °FBroken clouds.8 mph100%30.18 "HgN/A
1:50 PM61 °FBroken clouds.7 mph100%30.18 "HgN/A
1:20 PM61 °FBroken clouds.9 mph100%30.18 "HgN/A
12:50 PM59 °FCloudy.8 mph100%30.18 "HgN/A
12:20 PM59 °FPartly sunny.8 mph100%30.18 "HgN/A
11:50 AM61 °FPartly sunny.6 mph100%30.15 "HgN/A
11:20 AM61 °FMostly cloudy.7 mph100%30.15 "Hg6 mi
10:50 AM61 °FDrizzle. Mostly cloudy.6 mph100%30.15 "Hg2 mi
10:20 AM61 °FPartly sunny.7 mph100%30.15 "Hg6 mi
9:50 AM61 °FBroken clouds.6 mph100%30.12 "Hg4 mi
9:20 AM61 °FBroken clouds.5 mph100%30.12 "Hg4 mi
8:50 AM59 °FFog.3 mph100%30.12 "Hg2 mi
8:20 AM59 °FDrizzle. Fog.3 mph100%30.12 "Hg1 mi
7:50 AM59 °FDrizzle. Fog.5 mph100%30.09 "Hg1 mi
7:20 AM59 °FFog.5 mph100%30.09 "Hg1 mi
6:50 AM59 °FFog.5 mph100%30.09 "Hg1 mi
9:20 PM
Sep 1
61 °FPartly cloudy.6 mph94%30.09 "HgN/A
8:50 PM61 °FPartly sunny.7 mph94%30.09 "HgN/A
8:20 PM63 °FPartly sunny.No wind88%30.07 "HgN/A
7:50 PM64 °FSunny.2 mph78%30.07 "Hg10 mi
7:20 PM64 °FSunny.3 mph78%30.07 "Hg10 mi
6:20 PM64 °FPartly sunny.1 mph73%30.07 "HgN/A
Weather by CustomWeather, © 2014

See weather overviewHow to use our weather pages